Location: Calberlah
(52.4230°N, 10.6240°E)
Time: 10:44:30
(UTC+00:00)

Landsat 5 - Pass Details

Date: 19 May 2025
Orbit: 510 x 610 km, 98.1° (Epoch: 23 June)

Event Time Altitude Azimuth Distance (km) Brightness Sun altitude
Rises 21:52:47 0° 20° (NNE) 2,811 7.8 -15.5°
Reaches altitude 10° 21:55:03 10° 29° (NNE) 1,922 6.7 -15.6°
Maximum altitude 21:58:58 38° 98° (E) 913 4.2 -15.8°
Enters shadow 22:00:32 28° 143° (SE) 1,139 4.4 -15.9°
